| time (UTC) | temp C | wind direction | speed KPH | gust KPH | rain 1hr cm | rain 24hr cm | rain mn cm | humidity % | barometer mb |
| 20260505041526 | 19 | 134 | 16.1 | 24.1 | 0.00 | 0.00 | 0.00 | 68 | 1010.9 |
| 20260505040012 | 19 | 130 | 14.5 | 24.1 | 0.00 | 0.00 | 0.00 | 68 | 1010.9 |
| 20260505034511 | 19 | 111 | 11.3 | 24.1 | 0.00 | 0.00 | 0.00 | 67 | 1010.9 |
| 20260505033010 | 19 | 135 | 9.7 | 19.3 | 0.00 | 0.00 | 0.00 | 64 | 1010.9 |
| 20260505031522 | 19 | 140 | 8.0 | 16.1 | 0.00 | 0.00 | 0.00 | 59 | 1010.9 |
| 20260505030009 | 20 | 109 | 6.4 | 12.9 | 0.00 | 0.00 | 0.00 | 57 | 1010.7 |
| 20260505024509 | 20 | 133 | 8.0 | 12.9 | 0.00 | 0.00 | 0.00 | 56 | 1010.7 |
| 20260505023008 | 19 | 129 | 6.4 | 12.9 | 0.00 | 0.00 | 0.00 | 59 | 1010.7 |
| 20260505021508 | 19 | 136 | 3.2 | 9.7 | 0.00 | 0.00 | 0.00 | 62 | 1010.7 |
| 20260505020007 | 18 | 126 | 3.2 | 8.0 | 0.00 | 0.00 | 0.00 | 68 | 1010.5 |
| 20260505014513 | 18 | 117 | 3.2 | 6.4 | 0.00 | 0.00 | 0.00 | 69 | 1010.5 |
| 20260505013006 | 18 | 119 | 1.6 | 4.8 | 0.00 | 0.00 | 0.00 | 74 | 1010.5 |
| 20260505011509 | 18 | 127 | 1.6 | 6.4 | 0.00 | 0.00 | 0.00 | 74 | 1010.4 |
| 20260505010012 | 18 | 128 | 3.2 | 6.4 | 0.00 | 0.00 | 0.00 | 75 | 1010.4 |
| 20260505004505 | 18 | 126 | 3.2 | 6.4 | 0.00 | 0.00 | 0.00 | 71 | 1010.2 |
| 20260505003004 | 18 | 128 | 4.8 | 11.3 | 0.00 | 0.00 | 0.00 | 69 | 1009.9 |
| 20260505001503 | 19 | 115 | 4.8 | 12.9 | 0.00 | 0.00 | 0.00 | 65 | 1010.0 |
| 20260505000003 | 20 | 117 | 4.8 | 14.5 | 0.00 | 0.00 | 0.00 | 61 | 1010.0 |
| 20260504234501 | 20 | 129 | 1.6 | 8.0 | 0.00 | 0.00 | 0.00 | 57 | 1009.9 |
| 20260504233001 | 21 | 122 | 1.6 | 4.8 | 0.00 | 0.00 | 0.00 | 52 | 1009.8 |
| 20260504231500 | 21 | 126 | 1.6 | 6.4 | 0.00 | 0.00 | 0.00 | 51 | 1009.8 |
| 20260504230116 | 21 | 83 | 3.2 | 11.3 | 0.00 | 0.00 | 0.00 | 50 | 1009.7 |
| 20260504224626 | 22 | 123 | 3.2 | 12.9 | 0.00 | 0.00 | 0.00 | 49 | 1009.8 |
| 20260504223108 | 22 | 117 | 4.8 | 9.7 | 0.00 | 0.00 | 0.00 | 46 | 1009.9 |
| 20260504221558 | 22 | 119 | 1.6 | 9.7 | 0.00 | 0.00 | 0.00 | 45 | 1009.9 |
| 20260504220100 | 22 | 119 | 1.6 | 11.3 | 0.00 | 0.00 | 0.00 | 46 | 1009.9 |
| 20260504214557 | 22 | 113 | 4.8 | 12.9 | 0.00 | 0.00 | 0.00 | 45 | 1010.0 |
| 20260504213102 | 22 | 128 | 4.8 | 17.7 | 0.00 | 0.00 | 0.00 | 46 | 1009.9 |
| 20260504211600 | 23 | 111 | 9.7 | 24.1 | 0.00 | 0.00 | 0.00 | 34 | 1010.0 |
| 20260504204555 | 23 | 108 | 16.1 | 24.1 | 0.00 | 0.00 | 0.00 | 35 | 1009.9 |
| 20260504203053 | 22 | 126 | 6.4 | 14.5 | 0.00 | 0.00 | 0.00 | 36 | 1009.9 |
| 20260504201552 | 22 | 121 | 9.7 | 17.7 | 0.00 | 0.00 | 0.00 | 46 | 1010.2 |
| 20260504200100 | 22 | 106 | 6.4 | 20.9 | 0.00 | 0.00 | 0.00 | 43 | 1010.2 |
| 20260504194548 | 22 | 103 | 4.8 | 19.3 | 0.00 | 0.00 | 0.00 | 38 | 1010.3 |
| 20260504193049 | 22 | 119 | 9.7 | 16.1 | 0.00 | 0.00 | 0.00 | 41 | 1010.4 |
| 20260504191559 | 22 | 123 | 3.2 | 16.1 | 0.00 | 0.00 | 0.00 | 38 | 1010.5 |
| 20260504190042 | 22 | 125 | 4.8 | 24.1 | 0.00 | 0.00 | 0.00 | 36 | 1011.0 |
| 20260504184541 | 22 | 136 | 12.9 | 20.9 | 0.00 | 0.00 | 0.00 | 34 | 1011.1 |
| 20260504183038 | 22 | 113 | 6.4 | 14.5 | 0.00 | 0.00 | 0.00 | 35 | 1011.3 |
| 20260504181533 | 22 | 122 | 11.3 | 24.1 | 0.00 | 0.00 | 0.00 | 34 | 1011.4 |
| 20260504180029 | 22 | 115 | 6.4 | 11.3 | 0.00 | 0.00 | 0.00 | 40 | 1011.6 |
| 20260504174525 | 21 | 135 | 0.0 | 9.7 | 0.00 | 0.00 | 0.00 | 43 | 1011.6 |
| 20260504173022 | 20 | 145 | 1.6 | 4.8 | 0.00 | 0.00 | 0.00 | 55 | 1012.0 |
| 20260504171520 | 20 | 158 | 1.6 | 4.8 | 0.00 | 0.00 | 0.00 | 50 | 1012.2 |
| 20260504081557 | 12 | 125 | 8.0 | 14.5 | 0.00 | 0.00 | 0.00 | 74 | 1014.9 |
| 20260504044524 | 12 | 123 | 1.6 | 6.4 | 0.00 | 0.00 | 0.00 | 73 | 1015.3 |
| 20260504043024 | 11 | 123 | 1.6 | 6.4 | 0.00 | 0.00 | 0.00 | 74 | 1015.1 |